Location: Équennes
(49.7375°N, 1.9622°E)
Time: 01:37:24
(UTC+00:00)

Cosmos 2228 - Pass Details

Date: 28 January 2023
Orbit: 585 x 612 km, 82.5° (Epoch: 31 March)

Event Time Altitude Azimuth Distance (km) Brightness Sun altitude
Rises 17:18:32 0° 1° (N) 2,836 6.2 -6.5°
Reaches altitude 10° 17:21:19 10° 20° (NNE) 1,926 5.2 -6.9°
Maximum altitude 17:24:22 19° 66° (ENE) 1,429 4.3 -7.4°
Drops below altitude 10° 17:27:23 10° 112° (ESE) 1,910 5.1 -7.9°
Sets 17:30:07 0° 131° (SE) 2,804 6.1 -8.3°
